#timestamp,LO_Frequency,Hit,StdDev 
1558843215.8,286047000.6,N
1558843235.7,286047002.6,N
1558843255.5,286047000.0,N
1558843275.4,286047000.0,N
1558843295.2,286046999.8,N
1558843315.0,286046998.1,N
1558843315.9,286046998.1,N
1558843335.8,286046997.1,N
1558843355.6,286046995.3,N
1558843375.4,286046996.9,N
1558843395.3,286046997.8,N
1558843415.1,286047001.0,N
1558843435.9,286046998.6,N
1558843455.7,286046998.1,N
1558843475.5,286047000.8,N
1558843495.4,286047002.8,N
1558843515.2,286047000.8,N
1558843535.0,286047000.6,N
1558843535.9,286047000.6,N
1558843555.8,286047000.9,N
1558843575.6,286047001.6,N
1558843595.5,286047004.4,N
1558843615.3,286047001.7,N
1558843635.1,286047000.4,N
1558843655.9,286047001.8,N
1558843675.7,286047000.1,N
1558843695.6,286047000.4,N
1558843715.4,286047001.1,N
1558843735.2,286047004.4,N
1558843755.1,286047000.2,N
1558843756.0,286047000.2,N
1558843775.8,286047000.9,N
1558843795.6,286046998.4,N
1558843815.5,286047001.1,N
1558843835.3,286047002.7,N
1558843855.2,286047001.5,N
1558843875.9,286047001.1,N
1558843895.7,286047002.6,N
1558843915.5,286047002.2,N
1558843935.4,286047001.8,N
1558843955.2,286047001.3,N
1558843975.0,286047003.9,N
1558843975.9,286047003.9,N
1558843995.8,286047003.1,N
1558844015.6,286047003.6,N
1558844035.5,286047005.2,Y
1558844055.3,286047003.6,P
1558844075.1,286047003.7,P
1558844095.9,286047004.4,P
1558844115.7,286047000.2,N
1558844135.5,286047000.4,N
1558844155.4,286046999.3,N
1558844175.2,286046999.1,N
1558844195.1,286047000.9,N
1558844196.0,286047000.9,N
1558844215.8,286047001.9,N
1558844235.6,286047001.7,N
1558844255.5,286047001.7,N
1558844275.3,286047002.6,N
1558844295.1,286047000.7,N
1558844315.9,286047000.4,N
1558844335.7,286047000.1,N
1558844355.6,286047002.6,N
1558844375.4,286047001.5,N
1558844395.2,286047003.9,N
1558844415.1,286047000.4,N
1558844416.0,286047000.4,N
1558844435.8,286047000.0,N
1558844455.7,286046999.9,N
1558844475.5,286047000.4,N
1558844495.3,286047002.8,N
1558844515.2,286047002.3,N
1558844535.9,286047000.2,N
1558844555.7,286046998.9,N
1558844575.6,286046998.6,N
1558844595.4,286046998.7,N
1558844615.3,286046998.7,N
1558844635.1,286047001.0,N
1558844636.0,286047001.0,N
1558844655.8,286047002.3,N
1558844675.7,286047002.4,N
1558844695.3,286047002.8,N
1558844715.1,286047002.7,N
1558844735.9,286047000.1,N
1558844755.7,286047002.0,N
1558844775.5,286047001.4,N
1558844795.4,286047001.9,N
1558844815.2,286047000.2,N
1558844835.0,286047000.1,N
1558844835.9,286047000.1,N
1558844855.8,286046998.1,N
1558844875.6,286046996.6,N
1558844895.5,286046996.9,N
1558844915.3,286046996.6,N
1558844935.1,286047000.6,N
1558844955.9,286046998.3,N
1558844975.7,286046998.8,N
1558844995.5,286046998.6,N
1558845015.4,286046998.4,N
1558845035.2,286046998.3,N
1558845055.1,286046998.9,N
1558845056.0,286046998.9,N
1558845075.8,286046998.2,N
1558845095.6,286046998.4,N
1558845115.5,286046998.3,N
1558845135.3,286047000.4,N
1558845155.2,286047000.4,N
1558845175.9,286047002.8,N
1558845195.7,286047000.0,N
1558845215.6,286047001.2,N
1558845235.4,286047000.7,N
1558845255.2,286046998.7,N
1558845275.1,286046998.6,N
1558845276.0,286046998.6,N
1558845295.8,286046998.8,N
1558845315.7,286046998.7,N
1558845335.5,286046999.1,N
1558845355.3,286046996.8,N
1558845375.2,286046999.1,N
1558845395.0,286046998.6,N
1558845395.9,286046998.6,N
1558845415.8,286046998.4,N
1558845435.6,286046998.3,N
1558845455.4,286046998.3,N
1558845475.3,286047000.8,N
1558845495.1,286046999.3,N
1558845515.8,286046998.4,N
1558845535.7,286047000.9,N
1558845555.5,286047001.7,N
1558845575.4,286047000.4,N
1558845595.2,286047000.2,N
1558845615.0,286046999.7,N
1558845615.9,286046999.7,N
1558845635.8,286047002.7,N
1558845655.1,286047002.7,N
1558845675.9,286047000.6,N
1558845695.7,286047002.3,N
1558845715.5,286046998.2,N
1558845735.4,286046998.2,N
1558845755.2,286046998.1,N
1558845775.0,286046998.5,N
1558845775.9,286046998.5,N
1558845795.8,286046996.5,N
1558845815.6,286046996.5,N
1558845835.5,286046997.1,N
1558845855.3,286046998.4,N
1558845875.1,286046996.8,N
1558845895.9,286046999.2,N
1558845915.7,286046998.5,N
1558845935.5,286047001.1,N
1558845955.4,286047000.3,N
1558845975.2,286046999.0,N
1558845995.1,286046999.1,N
1558845996.0,286046999.1,N
1558846015.8,286046998.9,N
1558846035.6,286046998.7,N
1558846055.5,286046999.7,N
1558846075.3,286047000.7,N
1558846095.2,286047000.8,N
1558846115.9,286047001.2,N
1558846135.7,286046998.6,N
1558846155.6,286047002.3,N
1558846175.4,286047000.0,N
1558846195.2,286047002.7,N
1558846215.1,286047000.9,N
1558846216.0,286047000.9,N
1558846235.8,286046998.1,N
1558846255.7,286047001.2,N
1558846275.5,286046998.6,N
1558846295.3,286047001.0,N
1558846315.2,286046998.1,N
1558846335.0,286046998.4,N
1558846335.9,286046998.4,N
1558846355.8,286046998.4,N
1558846375.6,286047000.2,N
1558846395.4,286047000.0,N
1558846415.3,286047000.9,N
1558846435.1,286047001.2,N
1558846455.8,286046999.9,N
1558846475.7,286047001.7,N
1558846495.5,286047003.9,Y
1558846515.4,286046999.7,P
1558846535.2,286047002.3,P
1558846555.0,286046999.7,N
1558846555.9,286046999.7,N
1558846575.8,286047003.6,Y
1558846595.6,286047001.7,P
1558846615.5,286047004.1,P
1558846635.3,286047003.6,N
1558846655.1,286047000.0,N
1558846675.9,286047002.8,N
1558846695.7,286047002.1,N
1558846715.5,286047004.4,Y
1558846735.4,286047000.3,P
1558846755.2,286047000.9,N
1558846775.1,286047002.6,P
1558846776.0,286047002.6,N
1558846795.8,286047000.2,N
